GFSSGP_850_thetae_132.txt.gz
Theta_e
324 329 330 328 333 330 332 330 328 331 331 330 328 328 330 332 332 334 333 333 332 332 327 328 332 332 331 331 331 328 325 321 317 314 321 326 326 328 327 328 327 327 328 328 321 317 310 313 314
326 330 329 326 333 335 333 327 329 331 333 332 331 332 332 334 334 334 335 333 333 330 330 333 333 331 330 331 329 327 324 319 320 322 325 329 326 328 327 327 327 326 327 326 318 311 313 314 314
330 329 328 331 331 333 333 327 328 332 332 333 333 332 333 335 335 334 335 335 332 329 330 334 333 330 330 330 332 330 324 327 322 326 327 329 327 328 324 326 327 326 327 322 320 315 315 314 314
330 324 324 331 332 327 327 328 328 333 330 330 333 333 332 331 334 335 334 335 332 331 329 329 330 328 331 330 330 331 325 318 320 328 327 327 327 322 319 326 326 325 326 325 319 316 314 314 314
329 324 332 332 330 325 322 327 330 333 330 331 332 331 334 333 333 335 334 335 333 332 324 324 327 326 329 329 330 330 324 319 314 323 325 321 322 316 313 321 324 321 319 322 321 314 314 314 314
327 324 333 335 332 325 323 328 331 330 329 331 331 331 333 331 332 335 333 334 333 330 323 320 321 324 326 327 330 330 325 321 315 313 317 315 319 316 313 314 317 314 314 315 315 315 315 315 314
328 330 332 332 332 327 326 327 329 329 329 331 331 331 332 330 332 335 332 333 332 329 322 316 317 320 325 328 328 328 323 321 312 311 313 317 316 315 313 313 313 314 314 314 315 315 314 314 314
323 327 329 329 330 330 325 327 325 327 329 327 331 329 327 333 330 335 333 333 332 330 322 316 316 318 326 329 327 326 323 316 314 311 313 314 315 313 313 313 313 314 314 315 314 314 314 315 315
320 329 331 331 327 326 320 326 323 325 329 330 331 329 326 329 330 335 334 334 332 330 322 318 318 322 325 328 325 326 322 319 313 310 312 313 314 313 313 314 313 313 314 314 315 314 314 315 316
324 327 328 325 324 324 322 323 324 327 329 330 330 329 327 326 329 333 334 334 333 331 324 320 319 321 325 325 326 326 324 317 314 311 311 313 314 314 313 313 313 314 314 315 315 315 315 316 317
322 324 325 323 320 318 321 321 325 326 329 328 329 329 327 327 328 330 333 333 333 333 331 323 322 322 323 324 326 327 325 321 317 312 311 313 314 314 314 314 314 314 315 316 316 316 316 317 317
324 322 322 322 317 319 322 321 323 326 326 325 327 327 326 326 326 327 328 332 333 333 333 332 324 324 324 324 325 326 325 322 319 312 312 312 314 315 315 315 315 315 315 316 317 316 317 317 318
326 324 322 322 321 321 317 321 323 322 325 324 322 322 324 325 325 326 327 328 330 332 333 333 332 326 323 325 323 322 323 321 322 315 312 313 314 315 316 316 316 316 316 317 317 317 317 318 318
323 323 324 322 320 318 319 321 316 320 320 322 323 321 323 323 325 325 326 326 328 330 332 333 332 332 329 324 324 323 322 320 319 321 314 313 314 315 316 317 316 316 317 317 318 318 318 319 319
323 325 324 324 325 323 317 322 319 321 319 319 322 324 321 323 325 324 323 322 325 327 330 332 332 331 330 330 326 323 322 321 318 317 318 315 314 316 317 317 316 316 317 318 318 319 319 320 319
326 326 329 326 322 323 322 331 327 322 319 321 321 322 322 321 321 322 324 324 323 324 327 330 332 332 330 330 330 328 323 321 319 318 316 315 315 314 317 317 317 317 317 318 319 319 320 320 320
322 329 327 327 320 320 321 330 328 322 318 320 322 321 322 324 320 319 321 323 323 323 324 327 330 331 330 329 329 330 328 325 320 318 317 315 314 315 315 316 316 316 317 317 318 319 320 321 321
328 326 323 326 323 319 324 323 325 320 318 321 322 321 320 322 321 319 320 322 322 323 324 325 327 330 330 330 329 329 330 329 326 325 318 315 315 314 315 316 316 316 317 317 318 319 319 321 321
322 322 322 320 321 321 323 323 322 321 321 320 321 321 320 320 321 322 320 320 322 322 324 325 325 326 330 330 330 329 330 330 329 328 328 321 315 314 314 315 316 316 316 317 318 319 319 321 321
322 323 321 321 319 319 322 323 322 321 321 321 322 322 322 321 322 322 321 322 322 322 322 323 324 325 326 328 330 330 330 330 330 330 329 329 325 319 315 316 316 316 316 317 317 318 319 320 321
323 322 321 322 320 321 321 324 323 322 320 320 320 321 322 324 324 324 322 324 324 323 323 322 323 324 323 323 328 330 330 330 330 330 329 329 328 327 324 321 319 317 317 317 317 318 319 320 321
324 320 321 321 320 325 320 326 323 321 320 318 317 319 319 319 321 323 324 324 325 324 324 323 323 322 322 324 325 324 327 329 330 330 329 328 328 327 327 326 323 320 318 317 317 318 319 320 321
322 321 322 321 322 322 321 323 321 321 321 321 320 320 318 317 317 317 317 318 320 323 323 324 323 322 322 324 324 323 323 326 329 330 329 328 327 326 327 326 326 326 323 319 318 317 317 319 319
319 321 321 322 323 325 322 322 321 322 322 321 320 320 319 318 318 316 316 317 317 317 319 322 323 321 320 321 323 325 323 322 326 328 328 328 327 327 327 328 327 326 326 326 325 322 319 318 319
321 322 325 326 325 322 317 322 322 321 320 319 319 319 319 318 317 316 317 317 317 320 321 320 320 323 322 319 320 321 323 323 322 324 326 328 328 328 329 329 329 328 327 327 326 326 325 322 319
321 321 322 322 324 321 316 322 322 320 320 320 318 317 317 317 316 317 317 317 319 319 321 322 323 323 323 323 322 322 320 324 323 323 324 324 325 326 327 328 329 329 329 329 328 327 325 324 322
321 321 319 317 308 319 319 319 317 317 317 316 315 316 317 317 316 316 317 317 317 318 318 321 322 322 322 322 323 322 321 321 323 323 324 324 324 324 325 326 328 329 329 328 326 325 324 324 323
320 318 321 318 325 323 320 319 319 317 316 317 317 316 316 315 314 314 315 315 316 317 318 318 321 321 321 321 321 322 322 320 322 324 324 324 325 326 327 328 328 328 328 328 326 326 326 325 325
319 320 318 320 320 324 323 320 318 319 318 317 315 314 313 313 312 314 315 315 316 316 316 319 319 319 320 321 321 321 322 321 321 323 324 325 325 326 327 328 328 328 328 327 326 325 324 324 324
318 318 319 321 320 319 319 319 315 316 314 311 314 314 312 312 313 314 315 316 317 315 316 318 318 319 319 320 321 321 321 321 321 322 323 324 325 327 327 328 327 326 326 326 326 325 324 324 324

GFSSGP_850_thetae_135.txt.gz
Theta_e
319 328 330 329 334 334 335 333 331 332 331 331 330 330 332 332 334 340 338 338 337 337 333 330 333 333 330 330 331 327 325 321 320 321 326 326 329 324 328 327 328 327 327 320 316 317 317 316 313
322 330 328 330 333 336 336 331 331 332 334 332 331 331 331 336 336 335 337 337 337 336 336 333 334 332 330 331 328 327 322 326 328 328 329 328 328 328 328 326 327 329 327 317 316 320 316 314 313
328 330 330 333 335 336 336 330 331 334 333 333 333 333 333 336 337 337 338 337 337 336 338 335 334 330 330 330 330 327 325 326 328 328 328 327 327 327 327 327 327 326 324 321 321 318 314 313 313
326 329 330 333 334 333 331 330 330 333 332 333 333 332 334 335 337 338 337 337 337 337 340 333 331 329 331 331 331 328 320 319 327 325 328 327 325 324 326 326 326 326 319 317 315 316 314 313 313
327 328 334 335 335 330 326 329 331 333 332 332 332 331 333 336 336 338 336 338 337 337 336 328 328 327 329 330 331 330 323 315 316 326 325 326 321 318 326 326 324 324 326 318 314 313 313 313 313
329 329 333 336 335 330 325 329 331 332 331 332 332 330 333 336 337 337 336 337 337 337 335 329 325 325 327 328 330 330 324 319 313 314 319 321 315 315 323 324 318 323 323 320 314 313 313 314 314
328 331 333 334 334 333 328 329 331 331 330 331 331 329 334 336 337 336 335 337 337 335 333 332 327 323 326 327 330 330 324 321 313 316 319 319 318 315 316 322 320 318 314 313 314 314 314 314 314
326 328 331 331 333 333 328 329 329 329 329 330 331 329 329 334 334 335 337 338 336 333 331 331 331 325 325 328 328 327 324 319 313 311 312 313 314 313 313 314 314 314 314 314 314 314 315 315 315
324 328 331 331 332 331 325 329 327 328 329 330 331 330 331 336 327 334 337 336 334 333 331 330 330 330 332 334 329 326 325 319 316 311 311 313 314 313 313 317 313 314 314 315 315 315 315 315 316
324 328 329 329 330 329 325 326 327 328 328 330 331 332 331 331 327 332 337 336 335 333 331 330 330 331 332 331 329 328 325 322 316 312 311 316 320 319 322 314 313 314 314 315 316 316 316 317 321
325 327 326 327 326 323 326 324 324 326 327 327 329 331 332 334 328 332 337 335 334 334 332 330 330 331 331 331 333 330 332 328 324 321 314 323 322 317 315 313 314 314 315 316 316 316 318 320 321
325 324 324 324 320 321 324 325 325 326 326 327 328 329 333 335 328 331 334 332 334 334 333 330 329 330 330 331 332 333 332 331 325 321 317 321 320 316 316 317 314 315 316 320 317 321 319 317 318
326 325 324 324 322 322 321 322 325 326 326 325 324 327 332 333 334 334 333 332 333 334 333 333 331 330 330 330 330 330 332 327 326 319 313 313 314 315 316 317 317 315 317 317 318 319 318 319 321
325 325 326 324 324 322 322 323 320 323 324 325 325 326 328 331 332 333 333 332 325 332 333 333 332 331 331 331 330 328 326 327 325 322 315 312 314 316 316 316 317 316 317 321 322 322 321 323 323
325 326 325 325 325 325 322 325 324 322 320 321 323 325 326 328 331 332 331 328 324 328 333 332 332 332 331 330 330 329 328 327 323 318 320 314 313 316 317 317 317 316 316 317 318 320 320 323 323
326 326 328 326 326 325 325 325 326 325 323 322 323 324 325 327 329 331 332 330 326 332 332 333 330 332 332 331 330 329 329 328 326 320 317 317 315 314 316 317 317 317 317 317 317 322 323 323 323
326 328 328 327 326 326 325 325 324 327 327 325 324 325 325 325 327 329 330 331 330 332 332 332 330 329 332 332 331 330 331 330 326 323 319 316 315 315 315 317 317 317 317 317 319 322 322 324 322
328 328 327 328 327 325 326 325 324 325 324 326 326 327 327 326 324 326 328 330 330 331 332 332 332 327 329 332 331 331 330 330 328 327 323 318 315 314 314 315 315 317 316 317 317 318 321 323 323
325 325 327 326 323 323 325 325 325 324 323 323 324 326 326 326 324 324 325 327 328 328 329 330 332 328 331 331 331 330 330 329 329 329 327 324 319 315 314 313 315 315 316 316 317 318 320 324 325
321 322 325 324 322 322 324 325 324 324 324 323 322 322 322 325 325 324 323 325 327 322 326 328 331 331 329 328 328 330 330 329 329 329 329 328 328 325 315 314 314 315 316 316 316 318 320 323 322
319 322 322 324 323 322 323 325 324 324 324 323 323 323 321 321 324 325 324 322 323 322 323 323 324 327 331 326 328 330 330 329 329 329 329 330 329 329 328 321 315 314 316 316 316 317 317 321 323
321 322 322 322 323 324 321 326 324 324 325 325 323 322 322 322 321 321 324 325 324 324 324 324 324 324 328 329 330 328 326 328 328 329 330 330 330 329 329 328 325 321 319 319 318 317 317 318 322
321 321 322 323 323 323 322 324 323 322 322 323 322 322 322 321 321 321 320 321 324 325 324 324 324 324 325 329 329 329 329 325 326 328 329 330 330 330 329 328 328 327 325 323 321 319 318 318 318
321 322 322 322 322 328 322 323 323 322 322 322 322 322 322 322 322 321 319 318 318 319 320 322 321 324 325 327 328 328 326 327 327 326 329 330 330 329 329 328 327 327 327 326 326 325 323 321 319
322 323 325 327 327 323 320 321 322 321 321 322 322 321 320 320 319 319 319 319 319 318 318 318 318 319 324 325 325 326 326 326 326 327 326 329 329 329 328 328 327 326 327 328 327 326 326 326 325
322 323 323 324 326 322 319 321 320 320 320 320 320 321 320 318 318 318 318 318 318 318 317 318 319 320 322 323 323 324 323 325 326 326 326 325 324 324 327 328 328 328 328 329 329 327 327 327 327
322 323 320 321 314 321 320 319 319 319 319 318 318 318 318 318 316 315 315 314 315 315 317 318 319 319 321 322 322 323 323 322 322 324 325 325 325 324 325 326 327 328 329 329 329 329 329 328 327
320 319 321 321 323 321 318 318 318 319 318 318 318 317 317 315 314 314 315 316 315 314 315 315 316 317 318 321 322 322 322 323 323 324 326 324 324 324 325 325 325 326 327 328 329 329 329 328 326
319 321 320 320 320 322 321 319 318 319 319 317 316 315 314 311 313 315 315 316 316 316 315 315 315 315 317 319 320 321 321 322 323 324 324 323 325 325 325 325 326 327 328 328 329 328 328 327 326
318 319 319 320 322 321 321 322 318 318 318 315 315 315 314 315 315 315 315 315 315 316 316 315 315 316 316 315 317 320 321 321 322 324 323 323 323 324 325 325 326 327 328 329 328 328 328 326 326

GFSSGP_850_thetae_138.txt.gz
Theta_e
320 325 329 329 333 335 335 333 330 331 331 330 330 330 331 334 337 344 338 338 337 336 331 332 333 332 330 329 330 327 325 324 330 331 331 330 327 328 325 328 328 325 318 318 320 313 313 312 312
321 328 327 330 333 335 334 330 332 334 333 331 331 331 331 336 338 336 337 338 337 336 328 331 333 331 330 330 328 326 322 328 329 328 329 329 329 328 324 332 329 326 317 315 315 314 312 312 312
323 328 327 334 335 336 334 330 333 334 333 332 333 332 334 337 338 336 338 338 337 337 337 333 334 328 330 330 328 319 315 322 328 328 326 326 329 328 325 327 323 318 313 322 320 314 312 312 313
326 328 329 332 334 332 329 329 333 333 332 333 333 334 335 336 337 337 337 338 337 337 336 334 332 327 330 330 329 321 315 315 319 328 326 327 320 328 326 327 324 318 324 318 313 312 312 313 313
326 328 331 336 336 331 325 328 332 332 331 332 332 331 336 335 338 337 336 337 337 336 337 333 331 326 329 330 329 325 317 313 315 316 322 318 321 327 327 325 327 322 318 315 313 313 313 313 313
326 329 331 334 335 329 325 329 330 331 331 332 331 330 337 335 336 335 335 337 337 336 336 330 329 326 326 328 330 328 320 316 314 318 320 314 315 325 326 324 323 326 318 313 313 313 313 313 313
327 330 332 332 333 332 329 329 330 331 330 331 330 328 336 334 337 333 335 337 336 335 335 330 326 326 324 327 330 330 325 320 312 315 313 317 313 314 322 318 320 317 315 314 314 313 314 314 314
324 328 330 330 331 332 329 329 329 329 331 331 330 328 334 335 332 331 334 336 336 335 334 332 326 325 326 325 329 329 327 321 312 311 312 313 313 313 313 314 314 313 314 314 314 314 314 314 314
324 326 329 330 331 331 328 329 328 328 330 330 330 331 332 333 328 333 336 335 335 334 331 331 331 324 329 328 328 327 325 321 315 311 311 313 314 313 313 313 313 313 314 314 314 314 314 315 316
324 327 328 328 328 328 325 326 328 328 328 330 331 331 335 331 326 329 333 334 335 334 331 330 331 329 331 330 330 326 325 321 318 312 311 314 316 314 315 315 313 313 314 314 315 315 315 317 320
325 325 325 326 324 323 324 326 325 327 326 328 330 332 333 332 326 329 330 333 334 334 333 330 330 330 331 330 330 328 323 323 317 314 311 316 325 323 318 315 313 313 314 315 315 315 316 318 323
326 325 325 324 322 321 323 324 326 325 326 327 327 331 332 332 327 326 327 331 332 334 334 331 330 331 331 331 330 329 327 326 323 318 313 314 322 320 317 314 314 314 314 315 316 316 318 318 317
326 326 325 325 324 322 323 323 322 325 327 326 326 330 332 334 332 328 327 327 331 333 334 333 330 329 331 331 329 331 328 327 328 321 315 314 317 316 315 316 315 314 314 315 317 318 320 317 320
326 326 326 325 325 324 323 322 323 323 325 325 326 325 331 332 333 332 331 328 324 333 334 333 332 329 329 330 329 327 325 328 327 322 319 313 312 314 315 316 317 316 315 316 317 319 319 320 323
325 325 325 325 325 325 323 323 323 324 324 322 325 325 326 329 331 332 331 329 325 323 332 333 332 332 331 329 328 328 327 325 325 323 318 318 312 313 315 315 316 316 316 316 319 321 322 322 322
325 325 327 325 325 325 324 326 323 324 324 323 322 323 325 326 328 331 332 330 328 322 323 332 332 330 332 331 329 329 329 328 326 324 320 316 316 312 313 314 315 316 316 316 316 317 319 320 323
326 328 327 326 325 325 324 326 324 324 323 324 324 323 323 325 326 328 330 331 329 324 322 323 328 327 330 332 331 331 330 328 328 326 324 319 315 315 313 313 314 316 316 316 316 317 320 323 322
328 328 326 326 325 326 325 324 323 324 325 326 327 327 326 325 325 326 327 330 331 327 327 330 330 329 325 331 331 331 331 330 330 329 326 324 320 316 314 313 313 315 316 316 316 317 320 322 322
323 321 326 325 323 323 325 325 323 324 325 323 324 325 325 326 327 326 325 327 328 329 328 331 332 330 330 327 331 332 331 330 330 330 329 327 324 320 316 314 313 314 315 316 316 316 317 319 321
322 320 321 323 322 322 322 323 321 322 323 324 324 324 323 322 323 326 325 324 325 326 326 330 331 332 331 328 325 328 331 330 330 330 331 329 328 326 321 316 314 313 314 315 316 316 317 319 320
321 321 322 322 321 321 322 323 322 322 322 323 323 324 324 323 322 322 324 325 324 324 325 325 325 329 329 329 328 329 330 331 330 329 329 329 329 329 327 327 322 314 314 314 315 315 316 317 319
322 318 320 322 321 324 321 326 320 320 321 321 323 323 323 323 323 323 321 324 325 324 323 323 325 325 328 330 331 329 327 329 325 326 329 329 329 329 329 329 328 327 318 315 314 315 316 317 318
323 319 320 321 322 321 321 324 321 319 320 320 320 323 324 323 322 322 323 321 321 324 324 324 324 324 325 327 330 330 329 328 327 326 326 328 329 329 329 329 329 329 328 325 321 319 319 318 317
319 320 321 322 323 324 322 321 320 320 320 320 320 321 322 322 322 321 320 320 320 320 321 324 324 324 324 325 328 330 329 329 329 328 327 326 325 325 328 329 329 329 329 328 326 325 324 322 321
321 322 323 325 324 324 319 321 320 318 318 319 321 321 320 319 318 318 318 318 319 319 319 318 319 320 321 323 326 329 329 330 328 327 327 326 325 325 323 326 329 329 329 328 327 327 326 326 326
322 321 323 324 323 320 318 318 318 318 318 318 320 320 319 318 315 315 315 315 314 315 316 317 318 319 320 321 324 327 328 329 328 328 327 326 326 325 325 324 325 328 328 328 328 327 327 327 327
322 322 319 319 308 316 318 318 317 316 316 318 317 318 317 315 314 315 315 315 315 315 316 315 315 317 319 319 323 328 329 330 329 327 328 327 327 327 327 326 325 324 327 328 327 327 327 328 328
320 319 320 320 320 319 316 316 316 318 318 316 315 315 314 313 315 315 315 315 314 313 315 316 315 314 316 317 320 323 327 329 329 329 330 329 328 328 328 328 327 325 325 326 327 328 328 328 328
319 321 320 320 317 320 318 316 315 316 314 313 313 313 315 315 315 315 315 313 310 312 312 313 314 314 315 315 317 321 323 327 328 329 329 329 330 329 329 328 328 327 325 326 326 327 328 328 328
318 320 319 319 320 317 317 318 316 315 313 314 314 316 316 315 315 315 314 310 309 309 312 312 312 312 314 314 315 315 316 319 323 325 326 327 328 330 330 329 329 328 327 326 326 327 327 328 327

GFSSGP_850_thetae_141.txt.gz
Theta_e
324 322 329 329 326 327 332 330 327 328 330 329 329 329 333 335 338 338 337 337 336 334 332 333 333 330 328 329 328 327 326 324 325 329 329 331 328 325 327 327 323 313 316 319 319 312 312 312 318
323 325 329 329 327 331 330 329 334 331 330 329 330 333 332 336 336 338 337 336 336 333 330 332 333 328 328 329 327 324 321 321 318 323 326 329 327 328 329 328 323 312 321 319 316 312 312 313 316
326 327 327 327 329 332 330 331 331 332 332 331 332 333 336 337 335 336 338 337 337 335 327 332 333 326 329 329 324 314 314 321 325 322 321 327 328 324 328 327 322 318 327 321 314 312 312 312 314
325 327 328 327 330 328 325 329 332 331 332 332 332 333 334 337 335 334 337 337 336 335 333 333 332 326 328 328 323 314 312 317 329 323 326 326 328 326 328 325 321 324 325 318 313 312 312 312 314
325 327 325 330 331 325 323 331 332 330 330 331 331 332 336 335 335 335 338 337 336 336 336 332 330 326 328 328 325 317 313 322 327 323 324 320 327 325 326 326 315 316 316 313 312 312 312 311 312
325 327 325 328 331 325 325 328 331 330 330 331 330 334 336 335 332 336 337 336 336 336 336 333 328 326 327 326 327 321 316 314 315 321 320 314 319 325 321 319 325 318 313 313 312 312 312 312 311
324 324 328 328 329 329 327 329 329 329 331 330 330 332 336 336 332 334 336 336 336 336 335 331 327 324 325 327 328 325 321 315 311 312 313 312 313 321 321 314 323 325 316 313 312 312 312 313 313
324 322 327 325 327 329 328 329 329 329 330 331 328 329 334 333 332 333 336 336 335 334 334 331 326 324 322 326 329 328 323 318 311 310 312 312 312 313 314 313 317 315 313 313 313 313 313 313 314
324 320 324 326 327 326 328 327 328 328 330 330 329 331 330 330 332 329 336 335 334 334 335 332 329 323 321 322 326 329 325 318 311 310 311 312 313 312 312 312 313 313 313 313 313 313 314 314 315
322 320 323 324 323 323 324 326 327 327 327 329 331 330 332 332 328 328 332 334 334 334 334 331 329 327 324 325 327 327 324 320 313 311 310 312 313 313 312 312 312 313 313 314 314 314 314 316 318
323 322 322 323 322 322 322 323 325 326 325 327 330 330 332 331 328 328 330 330 333 333 333 330 329 329 327 326 326 327 325 323 318 314 310 311 313 314 313 313 313 313 313 314 314 314 315 317 320
325 325 324 323 323 323 321 323 322 324 324 325 327 329 330 330 328 325 327 328 331 334 333 332 329 328 327 329 328 325 324 322 322 314 312 311 313 314 314 314 313 313 313 314 314 315 316 317 318
323 324 325 325 323 323 323 322 322 323 325 324 326 329 330 330 329 327 326 326 327 330 333 332 331 329 328 329 329 326 323 320 320 317 316 314 313 314 315 315 314 313 313 313 314 315 317 318 318
324 324 325 325 324 323 322 322 322 323 324 323 324 327 332 331 329 330 327 325 324 325 331 333 333 331 329 328 328 327 324 322 321 319 317 316 312 312 313 313 314 314 314 314 314 316 317 318 319
325 324 323 324 324 323 323 322 320 323 322 324 324 324 327 331 331 329 328 326 324 322 324 331 332 332 330 328 328 327 327 324 323 322 321 318 316 312 311 312 313 313 315 315 315 317 320 321 319
324 324 325 323 324 324 324 325 322 323 323 322 323 322 325 324 327 328 328 329 328 326 324 329 332 331 332 330 329 328 328 327 325 323 323 321 318 316 312 312 312 313 315 316 316 317 318 319 320
324 325 324 324 323 322 321 324 322 324 324 323 323 323 322 322 324 326 327 326 327 327 326 325 328 330 330 331 331 330 330 329 328 327 325 324 321 318 316 313 312 313 315 316 316 316 316 317 319
327 326 326 325 322 321 323 323 321 325 325 323 324 323 322 322 323 325 326 326 326 327 328 326 326 327 329 329 331 331 331 330 330 329 328 327 325 322 317 316 314 313 314 316 316 316 316 317 320
321 320 320 320 320 321 320 320 320 322 323 323 323 323 324 325 326 325 326 326 327 327 327 328 325 324 327 329 329 331 331 331 331 330 329 328 328 326 322 318 316 315 314 314 315 316 316 317 320
322 323 322 319 321 322 321 322 320 320 320 321 322 322 323 323 323 323 325 325 326 325 324 325 327 324 326 327 326 325 328 330 330 330 329 329 329 329 327 323 319 316 314 314 315 315 316 316 319
320 323 321 321 320 321 322 323 321 320 321 321 321 322 323 323 323 323 322 322 324 325 324 324 324 326 328 328 329 331 330 329 330 330 330 330 328 329 329 327 325 320 316 314 313 314 315 315 317
321 319 320 321 321 322 321 323 319 318 317 316 319 320 321 322 322 323 323 322 321 323 324 324 324 324 326 329 331 329 329 328 326 326 328 329 329 328 328 328 328 327 323 318 315 314 314 316 317
320 317 319 320 321 321 320 320 316 316 317 317 317 320 322 323 323 323 323 323 323 322 322 324 324 324 325 327 329 329 329 327 327 328 327 326 326 327 328 328 328 329 328 327 326 320 316 315 316
319 319 320 321 321 323 319 320 318 316 317 317 318 319 319 319 319 319 319 319 320 320 320 321 323 323 323 325 326 327 327 327 327 329 328 327 326 325 326 327 328 328 328 328 328 328 325 320 318
320 321 323 323 324 321 318 320 319 316 316 316 317 317 317 316 316 316 316 316 317 318 319 319 319 322 323 324 326 327 328 329 328 328 328 329 328 327 325 325 325 326 327 328 329 328 328 327 325
322 321 321 322 322 318 315 321 318 315 317 318 319 316 315 315 315 315 314 315 314 315 316 316 315 316 319 324 326 326 328 329 329 330 330 330 329 328 327 326 325 324 324 325 328 329 329 328 327
321 322 317 315 305 313 315 315 315 315 314 315 315 314 314 315 315 314 313 311 310 312 313 315 315 314 315 316 318 321 326 328 330 330 331 331 330 330 329 329 327 326 326 326 326 328 328 328 328
320 318 320 320 320 317 314 315 315 316 314 313 312 312 313 314 315 315 311 310 310 311 312 312 312 312 313 314 315 318 319 321 326 329 330 330 330 330 330 330 329 328 328 328 327 327 327 328 328
319 321 320 319 317 317 315 313 311 312 313 312 311 313 315 315 315 313 310 309 309 310 310 311 312 312 312 312 313 314 315 317 321 324 327 328 328 329 330 331 330 330 329 329 329 327 326 327 327
315 319 319 322 319 316 314 315 311 311 311 312 312 313 314 315 315 313 310 309 309 310 310 311 311 311 311 312 312 313 312 314 318 321 323 326 328 328 329 329 330 330 329 329 329 328 326 326 325

GFSSGP_850_thetae_144.txt.gz
Theta_e
324 324 328 329 325 325 329 329 326 328 328 328 329 330 331 335 337 333 336 336 336 332 332 335 332 332 329 328 327 326 325 324 312 324 329 328 322 329 323 317 313 323 322 318 314 312 313 321 325
325 327 329 330 327 330 328 331 333 330 329 330 331 333 334 337 337 337 336 336 337 333 332 333 332 328 327 328 326 324 323 317 315 314 329 325 327 328 327 322 313 328 323 318 312 312 313 320 323
327 328 328 324 325 329 328 332 329 330 331 331 330 333 336 336 334 336 336 336 336 333 331 332 332 327 328 327 319 313 318 318 318 319 325 326 329 329 325 321 316 327 325 317 312 311 313 318 323
328 327 327 325 329 328 326 330 330 331 332 332 332 332 334 336 333 336 336 336 336 334 328 332 332 326 328 325 316 311 319 323 321 323 321 330 321 327 325 320 318 324 322 314 311 311 312 317 322
327 327 323 326 328 324 324 330 330 329 329 331 331 332 335 335 335 336 337 336 335 333 331 333 332 326 328 325 319 311 311 326 322 329 323 327 327 326 324 317 318 319 316 311 311 311 311 314 319
326 325 325 328 328 324 324 331 330 329 330 331 329 333 334 335 334 336 337 336 336 334 333 333 330 326 327 326 322 314 311 315 315 316 313 322 323 324 324 320 317 318 313 312 312 312 312 311 313
323 322 326 327 326 327 325 327 327 328 329 329 329 334 335 336 335 336 337 337 336 335 333 332 329 326 325 325 326 319 314 311 311 312 312 312 319 322 318 316 326 319 312 312 312 312 312 312 312
323 321 326 324 325 327 326 328 328 328 328 330 329 331 333 333 332 336 336 336 335 335 335 332 329 325 323 324 327 326 321 315 310 311 312 312 312 315 314 312 323 325 314 312 312 312 312 313 313
323 320 323 326 326 324 327 327 327 329 330 329 329 330 329 330 330 336 336 336 335 335 334 333 327 325 322 321 326 327 325 319 313 310 311 312 312 312 312 312 313 317 313 313 313 313 313 314 314
321 319 322 322 321 322 322 323 325 326 327 329 330 329 329 329 327 332 334 334 334 334 333 334 332 327 322 319 321 325 327 323 316 311 310 311 313 313 313 312 312 312 313 313 313 313 314 316 316
321 320 320 322 322 322 322 323 322 325 324 326 329 329 330 330 329 327 329 331 327 331 333 333 333 328 324 319 319 321 324 323 320 313 311 310 312 313 312 312 312 312 313 313 313 314 314 316 317
324 323 322 323 322 322 321 322 322 322 323 324 324 326 330 330 329 326 325 326 328 330 331 331 333 329 327 325 322 322 321 320 321 317 314 310 311 313 313 313 313 312 313 313 313 314 314 316 317
323 323 324 324 324 322 323 322 321 322 323 324 324 325 328 330 330 328 326 326 327 331 331 331 331 330 329 327 326 327 325 321 320 319 316 312 310 311 312 314 314 313 313 313 313 315 315 316 317
323 324 324 324 324 324 321 322 322 322 322 323 322 324 327 329 330 330 328 326 325 327 329 330 329 331 330 329 328 328 328 326 323 320 318 316 314 312 312 313 314 313 313 313 313 314 316 316 317
324 323 322 323 324 322 323 322 319 324 324 323 322 322 323 327 330 330 328 326 325 324 324 328 328 331 331 330 329 329 328 328 326 323 322 319 318 315 313 313 314 313 314 314 314 315 315 317 318
323 323 325 322 323 324 323 325 321 324 323 323 323 322 322 324 327 325 325 326 327 328 324 323 327 330 331 331 331 330 328 328 327 326 324 323 322 319 317 314 312 313 314 315 316 315 316 316 318
324 328 323 323 322 321 321 322 321 323 324 323 324 324 323 322 324 324 323 324 324 325 326 324 323 325 329 331 331 330 330 329 328 328 327 325 324 323 320 318 314 313 314 315 316 316 316 316 317
328 325 325 323 321 320 321 320 318 321 321 321 322 323 323 323 322 322 322 323 324 325 326 328 326 324 325 329 331 331 330 330 330 330 329 328 327 326 325 322 318 315 314 315 316 316 317 316 316
321 322 323 319 320 321 320 320 319 320 320 320 321 323 323 323 324 323 322 323 325 325 326 326 328 327 325 325 329 330 327 329 330 330 330 330 329 328 327 326 323 319 316 314 315 316 317 317 317
321 322 324 320 319 321 321 321 319 319 319 320 320 321 322 323 323 323 324 324 325 326 326 326 326 327 328 325 323 327 329 328 327 329 329 330 330 329 327 327 327 324 320 317 315 315 316 317 317
323 322 322 323 319 320 321 322 320 319 319 319 320 321 323 323 323 323 324 323 323 324 325 326 326 325 325 326 325 326 330 330 330 327 326 327 329 330 329 326 327 328 325 321 318 316 315 315 316
323 319 320 320 322 323 319 323 319 317 318 317 319 320 321 323 322 322 322 323 323 322 322 324 325 325 325 325 327 327 327 327 327 327 327 327 327 328 329 329 328 327 328 326 324 319 316 316 317
320 317 318 319 322 321 321 322 318 314 315 315 316 317 318 320 319 320 320 321 322 322 322 321 322 324 326 325 325 325 327 328 328 329 329 329 328 327 328 329 329 328 327 328 328 325 321 318 317
316 318 318 318 321 323 320 321 318 315 316 315 316 315 317 318 319 319 319 319 319 321 322 322 321 322 325 328 327 327 326 326 329 328 329 328 329 329 328 327 328 329 328 327 328 328 327 325 321
319 319 322 324 324 322 316 319 318 313 314 314 315 314 314 314 315 315 315 316 316 318 318 319 319 320 322 325 327 328 328 327 328 328 328 329 329 328 328 329 328 327 326 326 327 328 328 328 327
320 320 322 323 322 321 315 319 318 315 316 316 316 313 314 314 314 312 311 311 312 313 314 314 315 315 317 318 321 325 327 328 329 329 329 329 329 328 328 329 329 329 328 327 327 327 327 327 328
320 322 318 315 305 313 315 315 313 312 314 312 313 312 314 314 311 310 309 309 310 311 312 313 312 312 312 313 314 316 318 322 326 328 328 328 328 329 329 329 329 330 330 329 328 327 327 327 327
320 318 321 318 322 320 316 314 317 314 312 311 309 311 314 313 311 310 309 309 309 310 310 311 311 312 312 312 312 312 313 316 319 321 326 327 327 327 328 329 329 329 330 330 330 329 328 327 327
321 319 320 319 314 317 314 313 308 312 311 310 309 312 314 314 313 311 309 309 310 310 310 310 310 311 311 311 311 312 312 311 313 317 319 320 322 323 325 326 327 328 329 329 329 329 329 329 328
313 317 315 320 320 314 313 314 310 309 309 309 310 311 314 314 312 309 308 309 309 309 308 307 308 308 309 310 311 311 311 311 311 311 312 317 321 323 324 324 325 327 328 328 328 328 328 329 329

GFSSGP_850_thetae_147.txt.gz
Theta_e
327 327 328 330 325 323 327 328 325 328 327 328 328 329 329 334 333 330 336 335 333 331 335 337 336 333 331 327 326 326 325 323 319 329 327 327 327 319 316 317 327 326 324 322 318 324 322 324 324
329 328 329 330 327 328 327 328 327 330 327 332 332 332 333 335 336 335 334 335 336 331 332 334 332 330 326 326 326 324 322 318 318 330 329 321 325 323 320 315 328 327 320 316 314 313 319 322 323
330 327 328 322 324 328 328 330 328 329 329 329 330 334 335 335 333 334 334 335 336 334 331 332 332 328 326 327 322 315 317 312 314 323 328 327 329 326 321 315 324 322 317 317 318 312 314 318 323
330 327 326 325 329 327 326 329 329 330 331 331 330 332 334 335 331 332 334 335 336 335 331 330 332 327 327 323 314 313 314 314 315 319 330 328 331 326 317 317 321 320 315 316 311 311 313 316 321
328 326 322 325 326 324 324 329 330 328 329 331 331 331 334 333 333 332 334 335 335 334 329 329 332 326 326 323 316 311 322 314 320 315 325 324 327 327 320 316 322 319 314 311 311 311 313 319 320
326 324 324 327 326 323 323 330 329 328 328 330 329 332 333 333 331 331 335 335 335 334 329 330 332 326 324 324 320 312 313 319 316 313 317 329 328 326 322 315 314 314 311 311 311 311 311 314 317
322 321 325 326 326 325 323 328 328 328 328 329 330 331 333 334 331 331 335 336 336 335 333 332 330 328 324 324 322 316 313 314 313 313 313 320 321 325 325 318 314 313 311 311 312 312 312 311 312
323 320 324 324 324 325 324 326 326 328 329 328 328 328 330 332 331 334 335 336 336 335 335 333 331 328 325 323 323 321 316 314 311 312 312 314 319 322 321 317 327 317 312 312 312 312 312 312 312
323 320 323 325 325 325 323 325 326 329 329 329 329 328 329 331 330 334 336 336 335 333 333 335 334 329 326 323 323 324 322 318 314 310 311 313 313 317 317 316 322 327 318 312 312 312 313 313 313
321 319 322 321 321 321 321 322 322 325 327 328 329 328 328 330 327 329 332 332 333 332 333 334 333 329 326 324 321 322 323 320 317 312 310 311 313 314 314 314 313 315 314 313 313 313 313 313 313
320 320 319 322 321 321 322 322 322 324 323 325 327 326 328 330 328 328 328 328 328 329 331 331 333 332 329 325 321 320 322 324 320 317 311 310 311 313 313 313 313 312 312 313 313 313 313 314 315
323 322 322 323 322 321 321 322 321 322 324 324 323 323 325 329 329 328 327 326 327 329 327 329 330 333 331 326 323 321 322 323 322 320 315 313 310 311 312 312 312 312 312 313 313 314 314 314 315
322 322 323 323 323 323 322 321 321 322 322 322 321 323 324 326 328 329 328 326 327 326 326 328 330 329 332 329 327 325 323 323 323 322 321 318 314 311 312 313 313 314 314 313 313 314 314 314 315
322 323 323 323 324 323 321 321 321 323 323 323 322 322 323 325 326 329 330 328 326 325 324 325 328 328 329 331 329 328 326 326 326 324 322 320 317 312 311 313 314 315 315 314 313 313 314 315 316
323 323 320 322 323 322 322 321 318 324 323 323 323 323 322 322 325 326 328 329 328 325 325 324 324 326 326 326 330 329 328 328 328 327 326 323 320 317 315 314 314 314 315 315 313 313 314 315 316
323 321 324 322 322 323 322 324 321 323 322 322 323 324 323 323 322 323 325 328 328 328 326 326 324 323 323 323 323 330 330 329 329 328 328 327 324 322 321 318 316 314 315 315 315 315 315 315 316
322 326 322 323 319 321 320 322 321 322 322 321 322 322 323 323 323 322 322 324 324 325 326 327 327 323 322 322 322 325 331 330 330 329 328 328 327 325 323 323 321 318 315 315 315 315 316 316 316
327 323 323 322 320 320 321 320 317 321 321 321 322 322 322 323 323 323 323 322 323 322 324 326 328 328 324 324 327 326 329 331 330 329 329 329 329 328 327 325 325 324 321 317 314 315 315 316 316
322 322 322 319 319 320 320 319 318 320 320 319 320 321 322 323 324 325 324 323 322 322 322 324 326 327 329 326 325 328 324 327 330 328 328 329 330 330 329 328 327 326 325 322 318 315 315 315 317
322 324 324 320 319 321 320 321 319 318 319 319 319 320 321 323 323 324 325 324 323 322 322 324 325 326 327 329 327 327 326 325 324 329 328 327 328 330 330 330 329 328 328 327 324 319 317 317 317
321 321 322 323 319 319 321 321 319 317 318 319 319 320 320 321 322 323 325 325 324 323 323 324 324 325 326 327 328 329 329 329 328 325 324 325 325 327 329 330 330 330 328 327 327 326 321 318 317
322 318 320 320 322 324 317 321 317 315 314 314 316 318 318 318 319 319 320 323 324 324 323 322 322 324 324 326 328 329 328 328 326 325 325 326 326 327 327 328 329 330 330 328 327 328 327 324 320
319 317 318 318 319 321 322 322 318 314 316 315 314 316 317 317 317 317 318 319 319 320 321 320 321 321 322 325 328 329 330 329 328 328 327 328 328 329 329 329 328 328 329 329 329 328 328 328 326
315 317 318 318 321 322 318 320 318 316 314 313 314 315 316 317 317 317 318 319 319 319 319 320 321 321 321 322 325 329 329 329 329 329 328 327 328 328 328 329 329 329 329 328 329 329 329 328 328
317 319 322 322 322 322 315 318 318 314 312 312 312 313 313 314 314 314 314 314 314 314 315 316 317 319 321 323 325 327 328 328 329 329 329 329 330 329 328 328 328 329 328 329 329 328 328 328 328
319 320 321 321 321 318 314 319 317 314 315 316 315 314 313 312 311 310 310 311 312 312 313 312 312 312 313 313 313 316 323 326 328 328 329 329 329 329 328 329 328 328 328 329 329 329 329 328 327
318 321 318 317 306 313 316 314 313 312 311 312 312 312 312 311 310 309 309 310 310 311 311 311 311 311 311 312 312 312 311 311 313 317 321 323 325 326 327 328 328 328 328 329 329 328 328 329 328
319 318 320 318 322 321 316 314 316 313 313 309 308 311 311 311 311 308 309 309 309 309 310 310 310 310 310 310 311 311 311 311 311 311 313 316 320 322 323 323 323 322 324 325 326 327 327 327 327
319 316 315 317 317 319 315 313 308 310 310 309 309 311 312 311 308 308 308 307 307 307 307 307 307 306 307 307 309 309 310 311 311 311 311 310 311 314 318 321 322 323 324 324 325 326 326 326 326
314 316 315 318 320 317 314 315 307 306 308 310 309 310 309 306 306 306 305 305 305 305 305 304 304 305 304 304 304 305 307 309 309 310 310 310 311 311 310 311 315 321 322 323 324 325 326 327 328